FW0392 Weather Reports


time (UTC)temp
C
wind
direction
speed
KPH
gust
KPH
rain 1hr
cm
rain 24hr
cm
rain mn
cm
humidity
%
barometer
mb
20260505041517 14 360 0.0 9.7 0.13 0.13 0.13 84 1013.7
20260505040014 15 360 1.6 14.5 0.05 0.05 0.05 81 1013.7
20260505034512 15 360 0.0 9.7 0.00 0.00 0.00 77 1013.7
20260505033006 16 360 0.0 6.4 0.00 0.00 0.00 72 1013.7
20260505031617 17 360 0.0 9.7 0.00 0.00 0.00 66 1013.7
20260505030059 17 360 0.0 4.8 0.00 0.00 0.00 63 1013.7
20260505024610 17 360 0.0 1.6 0.00 0.00 0.00 63 1013.8
20260505023057 17 360 0.0 6.4 0.00 0.00 0.00 62 1013.8
20260505021609 17 360 0.0 1.6 0.00 0.00 0.00 62 1014.0
20260505020053 17 360 0.0 4.8 0.00 0.00 0.00 61 1014.0
20260505014553 17 360 0.0 1.6 0.00 0.00 0.00 61 1014.0
20260505013052 17 360 0.0 4.8 0.00 0.00 0.00 61 1014.0
20260505011555 17 360 0.0 8.0 0.00 0.00 0.00 59 1014.0
20260505010049 18 360 0.0 3.2 0.00 0.00 0.00 58 1013.9
20260505004549 18 360 0.0 3.2 0.00 0.00 0.00 58 1014.0
20260505003045 17 360 0.0 1.6 0.00 0.00 0.00 59 1014.2
20260505001542 18 360 0.0 3.2 0.00 0.00 0.00 59 1014.4
20260505000044 18 360 0.0 4.8 0.00 0.00 0.00 59 1014.4
20260504234539 18 360 0.0 8.0 0.00 0.00 0.00 59 1014.5
20260504233053 18 360 0.0 6.4 0.00 0.00 0.00 59 1014.7
20260504231531 18 360 0.0 8.0 0.00 0.00 0.00 60 1014.9
20260504230028 17 360 0.0 3.2 0.00 0.00 0.00 62 1015.2
20260504224526 17 360 0.0 6.4 0.00 0.00 0.00 64 1015.4
20260504223031 17 360 0.0 1.6 0.00 0.00 0.00 65 1015.4
20260504221523 17 360 0.0 4.8 0.00 0.00 0.00 66 1015.5
20260504220022 17 360 0.0 0.0 0.00 0.00 0.00 65 1015.6
20260504214519 18 360 0.0 0.0 0.00 0.00 0.00 65 1015.5
20260504213021 18 360 0.0 0.0 0.00 0.00 0.00 65 1015.7
20260504211515 18 360 0.0 3.2 0.00 0.00 0.00 64 1015.7
20260504210014 19 360 0.0 1.6 0.00 0.00 0.00 62 1015.7
20260504204518 19 360 0.0 1.6 0.00 0.00 0.00 60 1015.7
20260504203016 20 360 0.0 3.2 0.00 0.00 0.00 58 1015.6
20260504201512 20 360 0.0 8.0 0.00 0.00 0.00 56 1015.6
20260504200012 20 360 0.0 12.9 0.00 0.00 0.00 54 1015.3
20260504194511 20 360 0.0 3.2 0.00 0.00 0.00 52 1015.3
20260504193010 20 217 0.0 3.2 0.00 0.00 0.00 51 1015.3
20260504191543 20 198 0.0 8.0 0.00 0.00 0.00 51 1015.2
20260504190041 21 212 0.0 0.0 0.00 0.00 0.00 50 1015.1
20260504184538 21 178 0.0 1.6 0.00 0.00 0.00 49 1014.9
20260504183038 21 202 0.0 1.6 0.00 0.00 0.00 48 1014.7
20260504181542 21 211 0.0 0.0 0.00 0.00 0.00 47 1014.8
20260504180036 21 205 0.0 3.2 0.00 0.00 0.00 47 1014.7
20260504174533 22 161 0.0 0.0 0.00 0.00 0.00 52 1014.6
20260504173033 22 171 0.0 0.0 0.00 0.00 0.00 54 1014.7
20260504171533 22 153 0.0 4.8 0.00 0.00 0.00 53 1014.7
20260504081505 22 35 0.0 4.8 0.00 0.00 0.00 55 1017.0
20260504050018 15 360 0.0 0.0 0.00 0.00 0.00 69 1016.2